Weather in Bolshaya Koreniha

Ukraine / Mykolaiv District     46°56′42″N   31°54′04″E
temp.,
°C
wind,
m/s
gust,
m/s
humid.,
%
clouds,
%
prec.,
mm/h
press.,
hPa
HPBL,
m
24 january, mon
mon2423:00−4nne61180100 0.0 1024537
02:00−4n71378100 0.0 1024571
05:00−4n81473100 0.0 1024694
08:00−4n81686100 0.3 1024762
11:00−4n91378100 0.4 1025847
14:00−4n71088100 0.9 1024770
17:00−4n61193100 1.4 1025674
20:00−4n61194100 2.7 1025605
25 january, tue
tue2523:00−5n6119398 0.3 1025552
02:00−5n5992100 0.6 1026491
05:00−6n5890100 0.2 1025453
08:00−7n489098 0.2 1025402
11:00−5n5679100 0.0 1025644
14:00−4n4572100 0.0 1024750
17:00−5nnw2582100 0.0 1023246
20:00−5nnw2387100 0.0 1023115
26 january, wed
wed2623:00−6wnw119299 0.0 102233
02:00−7wsw1195100 0.0 102128
05:00−7wsw2294100 0.0 101949
08:00−7s1187100 0.0 101940
11:00−4s226597 0.0 1019299
14:00−2sse116993 0.0 1019498
17:00−4nne228483 0.0 102023
20:00−6nne238576 0.0 102254
27 january, thu
thu2723:00−6n239080 0.0 102374
02:00−6nnw369639 0.1 1023197
05:00−8nnw3694100 0.0 1023132
08:00−7nw1293100 0.0 102345
11:00−4wsw3477100 0.0 1023471
14:00−2wsw466997 0.0 1021607
17:00−3sw3785100 0.0 1020204
20:00−3sw499037 0.0 1019234
28 january, fri
fri2823:00−3sw489482 0.0 1018187
02:00−3sw399792 0.1 1017189
05:00−1sw31086100 0.1 1016255
08:000sw4118183 0.1 1015272
11:00+2sw5977100 0.0 1015397
14:00+3wsw487796 0.0 1014432
17:00+2sw51084100 0.0 1014229
20:00+1wsw4109415 0.0 1015224